GFSGBSN_sfc_wetblb_276.txt.gz
Wetbulb
61.92 61.81 61.57 59.95 59.60 59.41 59.32 59.23 59.63 59.53 59.58 59.79 59.96 59.59 59.36 59.73 60.05 60.29 60.06 59.96 59.42 59.61 59.66 59.66 60.22 61.05 56.66 50.31 51.60 57.58 75.07 73.46 66.76 62.24 59.57 59.21 58.30 58.64 56.67 58.77 60.58 58.07 58.61 62.76 65.09 64.73 63.38
61.91 61.93 61.85 61.27 59.87 59.98 59.87 60.28 60.54 60.20 59.91 59.89 59.71 59.60 59.44 59.60 59.71 60.03 59.97 59.50 59.25 59.50 59.68 60.17 60.34 61.34 54.82 46.24 54.47 57.98 65.44 63.19 63.01 60.44 60.09 60.06 59.88 61.28 59.46 58.39 58.06 60.60 58.31 60.44 64.60 63.89 63.85
62.12 61.96 61.82 61.67 61.27 60.96 60.60 60.54 60.51 60.27 59.91 59.74 59.44 59.36 59.22 59.30 59.65 59.63 59.45 58.93 59.03 59.23 59.78 60.62 61.02 60.46 54.63 51.80 58.09 57.23 56.22 58.56 61.59 59.91 58.73 61.73 61.81 58.21 57.24 56.93 61.41 60.55 55.64 56.65 61.54 62.74 62.35
61.83 61.74 61.64 61.51 61.13 60.84 60.36 60.44 60.26 59.90 59.70 59.40 59.17 59.16 59.12 59.04 59.06 58.96 58.51 58.23 58.59 59.46 60.23 61.09 61.91 56.34 49.34 58.20 58.56 57.53 55.51 55.41 55.31 56.57 56.82 58.35 59.39 57.39 56.04 58.39 58.37 56.98 56.03 50.96 57.89 62.06 63.74
61.61 61.34 61.32 60.82 60.37 60.36 60.07 60.17 59.91 59.51 59.31 59.25 59.02 58.81 58.81 58.59 58.38 58.03 57.30 57.87 59.31 60.92 61.18 61.69 52.93 51.66 48.92 61.71 55.49 57.08 55.63 54.43 53.67 54.14 55.97 61.09 57.97 55.20 56.02 52.56 50.90 53.50 49.00 52.91 56.20 60.54 61.22
61.16 61.04 60.87 60.47 59.55 60.22 59.94 59.56 59.56 59.30 59.23 58.99 58.63 58.37 57.95 57.95 57.51 57.02 56.77 57.55 59.15 59.51 60.12 61.39 59.67 48.30 51.60 52.61 53.89 54.58 53.38 54.01 50.96 51.68 54.95 53.84 53.01 51.29 51.16 49.56 44.83 48.62 50.74 53.17 53.72 57.92 60.35
61.15 60.87 60.56 60.19 59.97 59.87 59.54 59.46 59.30 59.20 59.01 58.65 58.41 57.88 57.53 57.30 56.89 56.09 55.28 52.74 53.28 50.02 50.71 51.34 49.90 50.58 52.18 54.81 56.46 54.01 53.81 50.91 48.59 48.54 44.53 49.77 47.81 46.33 50.80 52.99 54.20 53.74 52.51 52.81 55.65 59.28 57.53
61.21 60.94 60.48 60.10 59.70 59.53 59.26 59.24 58.92 58.62 58.43 58.21 57.98 57.44 57.22 56.37 55.42 55.56 53.47 51.13 54.92 55.70 48.90 53.85 56.04 54.89 56.11 54.86 53.45 52.14 50.79 47.41 45.27 43.39 46.66 45.93 45.15 51.54 54.69 55.18 53.93 53.57 52.30 51.53 56.49 59.02 55.34
60.74 60.53 60.19 59.73 59.51 59.17 59.01 58.74 58.32 57.90 57.77 57.62 57.56 57.28 56.67 55.77 55.91 54.47 54.02 55.14 59.20 56.16 47.82 51.36 53.68 53.70 54.44 55.37 52.97 49.54 50.31 47.19 44.72 43.25 44.37 43.59 48.24 53.55 53.61 53.34 51.96 51.24 51.33 54.20 53.74 56.63 56.30
59.82 59.76 59.51 59.61 59.48 59.08 58.81 58.44 58.14 57.66 57.40 57.12 57.20 57.00 56.03 54.91 53.47 53.91 53.88 56.96 59.36 56.73 42.29 47.43 48.41 52.78 54.21 55.14 50.47 52.95 51.51 49.29 45.66 43.97 44.65 45.12 50.43 50.90 50.98 51.36 51.48 45.93 55.38 57.91 56.09 53.05 46.51
59.25 59.20 59.18 59.08 58.95 58.96 58.66 58.20 57.86 57.50 57.06 57.10 57.08 56.55 55.06 54.68 51.83 52.02 56.31 58.54 59.02 52.81 36.57 52.24 49.07 55.48 53.35 51.37 48.34 49.94 51.30 47.94 45.52 46.47 45.36 45.22 47.96 48.40 48.93 50.94 53.24 51.38 57.39 56.34 55.95 50.80 46.25
58.71 58.80 58.94 58.90 58.71 58.40 57.72 57.32 57.12 56.92 56.81 56.62 56.51 55.99 54.88 53.90 52.44 54.58 56.99 56.82 53.72 43.03 38.02 48.59 50.55 49.67 48.36 48.09 49.59 50.97 49.38 48.39 49.54 46.17 44.88 46.85 50.90 49.93 50.32 53.07 54.59 57.19 54.66 53.96 51.13 46.81 42.48
57.76 57.77 57.58 57.67 57.75 57.38 56.86 56.42 56.50 56.35 56.15 55.97 55.18 54.17 53.83 55.89 51.16 55.73 56.03 52.43 41.81 37.64 50.83 48.42 46.21 47.44 45.11 44.96 46.95 48.38 46.47 43.08 42.58 38.09 37.75 43.81 45.97 48.78 51.88 48.38 50.04 52.81 48.57 42.51 41.42 41.02 41.41
56.51 56.56 56.46 56.49 56.64 56.34 56.32 56.42 56.13 55.99 55.89 55.18 53.46 52.65 53.45 55.09 54.33 55.35 52.66 46.96 37.57 47.62 47.56 50.76 49.92 48.04 46.44 46.34 45.03 46.19 43.98 41.72 43.81 41.76 39.15 38.53 39.51 47.52 51.71 49.02 47.77 48.22 49.03 43.40 38.39 38.79 41.22
55.70 55.20 55.19 55.72 55.86 56.22 56.23 56.05 55.66 55.38 55.32 54.48 52.76 51.95 53.34 55.58 56.97 54.34 48.72 39.71 41.31 46.09 50.72 49.67 49.10 45.51 42.52 46.47 46.15 44.52 42.73 42.68 44.87 43.73 40.31 38.49 41.77 49.85 51.34 51.11 50.59 46.58 45.03 51.01 44.60 42.10 40.49
54.83 54.58 54.43 54.47 54.94 55.17 55.35 55.33 55.48 55.72 55.08 54.18 52.21 50.83 52.25 57.66 58.69 52.46 45.44 40.88 44.99 50.77 51.73 49.72 44.27 47.31 42.95 45.21 44.20 41.43 41.79 45.54 46.68 46.88 44.62 42.32 39.06 45.31 49.39 50.93 50.80 48.65 50.68 44.56 43.66 37.99 37.46
55.86 54.75 54.50 54.21 54.25 54.07 53.97 55.41 55.82 54.92 54.33 53.69 51.58 50.60 56.53 58.94 56.74 48.88 41.32 42.46 48.34 51.99 52.60 49.00 47.56 45.75 45.42 45.47 44.58 40.38 42.82 46.16 48.71 48.36 45.22 42.36 41.36 45.12 46.62 44.97 46.17 47.42 46.23 45.97 45.73 44.06 39.88
55.79 55.44 55.22 54.09 54.03 54.01 54.11 55.43 54.98 53.68 53.58 52.82 50.19 47.05 56.81 60.85 48.35 46.13 43.48 47.45 49.42 50.70 52.97 50.63 50.37 48.35 46.78 47.06 44.22 44.41 44.56 46.02 49.89 49.18 44.97 44.77 40.36 38.98 42.95 47.72 50.45 49.64 48.69 47.59 43.04 41.93 41.34
55.88 55.15 55.12 55.20 53.99 54.15 54.20 55.14 54.35 53.26 54.47 53.42 47.77 49.99 58.22 55.94 44.65 44.48 47.49 50.06 51.79 51.77 51.44 50.01 49.62 50.27 48.40 45.15 43.45 46.54 49.89 53.65 54.76 46.17 45.22 44.78 39.52 38.06 40.78 42.77 48.16 46.74 47.81 45.89 47.65 47.35 44.53
55.59 55.54 55.53 55.60 55.12 54.17 54.04 54.38 54.04 53.72 54.71 53.07 48.98 47.19 51.86 52.47 50.55 47.74 46.30 49.14 49.33 55.08 53.32 53.65 51.84 50.11 47.53 45.71 45.16 47.38 53.67 56.98 58.05 56.20 61.57 52.45 38.71 39.59 38.72 40.88 48.14 46.52 49.91 49.40 44.54 42.94 44.15
54.65 55.23 55.39 55.99 55.62 54.30 54.09 54.09 54.22 54.13 54.61 52.82 48.66 47.73 51.24 46.24 48.67 49.51 48.30 49.83 50.77 50.37 53.03 51.98 49.54 50.17 47.45 41.71 45.68 50.48 53.65 54.28 56.16 58.27 51.35 43.24 40.52 40.33 42.64 46.18 50.95 50.82 50.48 51.00 47.57 48.87 44.36
54.27 54.73 55.08 56.10 55.79 55.52 54.42 54.48 54.43 54.26 54.27 51.70 46.71 49.55 51.27 49.33 49.62 48.59 47.56 48.59 51.15 52.37 52.91 52.76 49.66 52.58 48.28 43.82 49.61 48.60 50.45 49.93 49.22 54.04 52.08 49.22 40.63 40.80 40.69 50.34 50.63 50.25 52.91 51.51 51.14 50.54 49.36
54.16 54.36 54.72 55.50 56.29 55.89 55.66 54.50 54.64 54.31 54.34 53.26 55.70 53.73 50.54 48.09 48.59 47.09 47.52 51.02 53.00 54.79 55.35 57.22 55.90 53.75 46.76 50.81 56.14 54.98 54.79 53.03 51.79 50.41 50.13 49.29 45.57 40.78 37.77 43.51 44.48 42.51 49.44 51.79 51.13 52.78 52.83
53.64 53.89 54.42 55.40 56.25 56.33 56.13 55.38 54.88 55.05 55.48 54.49 53.90 52.69 48.26 46.27 48.43 50.08 51.88 53.60 53.75 54.51 52.53 56.53 57.40 53.92 56.17 58.98 56.36 54.74 54.25 53.23 52.75 51.07 51.40 48.92 45.87 40.25 39.79 42.97 37.37 46.89 53.25 55.27 53.53 53.70 54.79
53.44 53.62 54.64 55.41 55.86 56.58 56.30 56.11 55.49 54.96 55.22 54.02 52.19 52.73 49.63 45.98 49.34 50.96 51.02 51.67 53.36 53.49 54.08 56.02 57.36 56.94 57.71 57.11 50.65 47.82 49.08 49.85 51.37 52.09 50.39 51.44 44.12 41.15 40.53 39.90 45.31 49.78 53.03 53.44 51.58 50.58 58.74
53.07 53.55 54.31 55.23 55.56 55.93 56.45 56.17 55.62 54.81 54.55 55.01 51.81 55.43 53.84 48.83 45.63 51.50 49.67 50.79 49.39 48.89 50.80 54.56 57.81 58.46 57.80 51.49 48.33 44.18 43.71 46.48 47.16 49.62 51.82 51.02 50.19 45.73 40.32 38.96 39.89 47.67 56.52 59.16 56.72 50.23 59.10
52.84 53.61 54.14 55.00 55.35 55.71 55.81 55.93 55.82 55.42 54.76 55.27 52.38 55.57 54.70 50.15 49.23 50.13 48.06 48.39 51.32 49.95 48.37 52.51 53.87 54.90 57.87 49.20 48.18 46.44 45.72 49.64 44.14 45.10 46.38 47.36 47.52 45.01 41.46 40.78 44.75 54.90 57.45 59.90 50.16 53.29 60.40
52.99 53.22 53.79 54.84 55.00 55.31 55.68 55.61 55.27 55.75 57.17 56.17 51.49 56.14 55.10 50.90 49.85 52.36 52.60 49.74 50.14 50.24 47.34 52.01 53.31 52.24 53.27 48.88 47.46 46.21 46.28 47.95 46.10 48.24 46.97 45.88 47.56 47.97 46.88 40.00 42.35 56.69 57.26 53.39 56.16 59.63 63.61
52.64 52.97 53.67 54.85 54.82 55.23 55.41 55.67 55.27 55.82 57.00 57.01 51.70 55.33 56.63 52.87 50.16 54.27 54.37 54.68 54.01 53.61 50.81 50.44 51.30 51.81 55.30 50.69 49.34 48.62 46.19 47.12 44.73 41.91 48.72 47.76 48.83 47.96 49.42 48.99 53.93 56.02 56.41 59.36 60.75 60.97 61.00

GFSGBSN_sfc_wetblb_279.txt.gz
Wetbulb
61.94 61.76 61.67 60.59 59.94 60.40 60.67 60.73 60.49 60.59 60.35 59.95 59.99 59.96 59.78 59.74 59.77 60.03 60.18 60.15 59.88 59.75 59.91 60.25 60.57 60.96 55.65 46.82 49.56 54.49 73.30 70.46 63.61 60.35 57.98 57.84 57.21 57.35 55.18 57.10 58.58 56.94 58.18 62.49 64.43 63.23 63.08
61.90 61.92 61.72 61.42 61.35 61.20 60.79 60.62 60.48 60.31 60.20 60.12 59.88 59.61 59.42 59.53 59.58 59.79 59.72 59.37 59.38 59.44 59.70 60.36 60.82 61.21 53.79 43.78 51.98 55.93 57.73 60.32 60.76 58.81 58.55 58.43 58.16 59.30 56.70 56.63 55.81 58.87 58.07 62.75 63.25 62.57 62.68
61.63 61.59 61.54 61.39 61.21 60.77 60.61 60.46 60.42 60.13 59.97 59.79 59.73 59.47 59.30 59.24 59.41 59.48 59.17 58.94 58.96 59.29 59.60 60.52 60.94 60.36 52.40 49.11 54.93 55.59 54.70 54.16 59.16 58.99 57.06 59.12 59.84 56.65 55.98 53.94 59.29 58.96 56.37 61.17 62.09 62.14 61.61
61.14 61.23 61.23 60.97 60.09 60.18 60.36 60.25 60.09 59.86 59.64 59.44 59.30 59.25 59.14 58.94 58.82 58.64 58.23 57.98 58.30 59.42 60.23 60.71 61.79 55.19 46.32 54.61 56.91 59.12 54.53 54.59 53.92 53.72 55.36 57.09 57.05 55.58 54.07 55.85 56.60 55.71 54.58 50.36 60.24 61.52 62.32
61.14 60.74 60.50 60.38 60.00 59.74 59.82 59.78 59.65 59.51 59.27 58.94 58.78 58.68 58.55 58.35 58.03 57.57 56.64 56.56 58.81 61.46 61.03 61.70 52.17 49.46 47.62 59.47 54.58 56.92 55.65 53.29 52.28 50.66 51.95 59.18 56.31 53.56 54.59 51.71 49.88 51.60 48.02 51.47 56.09 61.90 61.34
61.19 60.87 60.61 60.42 59.94 59.66 59.44 59.36 59.33 59.09 58.84 58.52 58.24 58.08 58.08 57.74 57.25 55.92 55.60 56.91 58.50 58.94 59.82 61.03 59.09 46.09 48.74 49.84 54.12 53.84 52.41 53.07 50.33 49.68 51.55 53.12 51.85 49.41 49.05 49.05 44.30 47.29 48.35 51.01 52.55 58.95 59.94
61.12 61.09 60.78 60.31 59.91 59.40 59.28 59.10 58.99 58.84 58.62 58.23 58.01 57.52 57.44 57.21 56.69 55.64 54.49 52.01 51.99 49.71 52.19 49.98 50.31 47.93 50.21 53.24 55.32 53.43 51.63 50.11 47.83 47.54 42.86 46.93 46.63 45.25 49.43 51.28 52.92 51.81 49.39 50.27 54.16 57.91 56.94
60.50 60.33 60.26 59.98 59.59 59.34 59.14 58.88 58.50 58.20 58.06 57.90 57.44 57.08 56.85 56.49 55.76 55.48 52.46 51.72 52.92 53.16 47.87 54.15 54.15 52.84 53.61 54.06 52.15 53.65 49.94 46.95 44.46 42.12 44.86 44.26 42.70 48.73 51.38 52.90 51.87 50.52 49.93 49.38 54.53 58.52 55.14
59.82 59.57 59.25 59.16 59.26 59.07 58.97 58.55 58.31 58.01 57.67 57.46 57.23 56.79 56.54 55.80 55.29 53.42 51.88 52.75 55.98 53.93 46.43 50.38 51.88 52.29 52.86 53.94 51.54 52.07 48.76 45.20 42.99 41.25 42.17 41.52 46.05 51.08 50.95 49.90 49.93 47.14 47.06 49.94 52.42 55.70 55.50
59.09 58.88 58.84 58.82 58.58 58.57 58.33 58.13 57.77 57.41 57.21 56.95 56.95 56.73 55.88 54.45 52.02 52.15 52.88 54.81 55.69 54.54 41.16 46.36 46.90 51.49 53.09 53.69 49.57 54.58 48.87 47.00 44.06 42.52 42.92 42.42 47.06 47.91 46.51 48.28 49.48 44.36 51.94 53.21 55.13 50.87 46.27
58.42 58.31 58.08 58.24 58.26 58.25 57.87 57.17 56.71 56.65 56.47 56.55 56.81 56.40 54.92 54.01 51.33 50.63 54.57 55.63 56.42 50.98 34.33 49.87 47.53 53.67 50.75 49.62 46.58 47.77 49.69 47.75 44.36 44.52 42.86 42.36 45.76 46.15 46.05 48.29 51.39 48.61 53.24 52.48 54.62 49.34 46.29
56.99 57.50 57.08 57.02 57.07 57.01 56.67 56.32 56.24 55.96 55.92 55.96 56.04 55.76 54.85 52.16 51.09 53.00 54.73 54.49 51.36 41.90 35.55 47.40 48.81 48.06 47.93 46.32 48.51 49.19 47.55 47.97 47.45 44.34 42.97 44.37 47.71 47.80 47.69 49.90 51.20 52.76 51.83 50.16 47.87 46.75 40.93
55.81 55.34 55.73 55.64 56.06 56.13 55.94 56.00 55.88 55.46 55.21 55.15 54.77 53.87 53.58 54.80 49.29 53.88 53.79 50.51 40.62 36.92 48.52 47.20 45.61 45.41 43.95 43.67 45.93 47.44 45.65 41.64 41.11 36.71 36.71 41.65 43.95 45.18 48.72 44.66 47.46 50.58 45.38 40.63 40.50 41.00 40.27
55.05 55.30 54.69 55.12 55.44 55.45 55.63 55.54 55.16 55.03 55.09 54.57 53.05 52.53 52.92 53.93 52.99 54.19 50.94 46.51 36.44 45.10 46.17 49.14 49.08 46.59 44.02 44.03 43.27 44.36 43.19 41.91 41.70 40.06 36.67 37.27 37.79 44.34 48.24 46.27 45.04 46.31 45.78 41.55 37.18 38.26 40.34
56.01 54.66 54.27 54.07 53.94 54.55 54.17 54.57 54.67 54.93 54.63 53.67 52.30 49.98 50.33 53.00 54.76 52.83 47.53 39.29 38.77 43.84 48.94 48.17 47.16 43.53 41.99 44.65 44.18 42.96 40.79 40.43 43.19 42.18 39.80 36.55 38.93 46.55 49.28 49.83 48.87 44.20 44.63 48.04 41.77 39.79 39.39
56.43 56.01 55.55 55.03 53.83 53.80 53.76 54.01 54.73 54.68 53.97 53.68 51.34 51.63 50.41 55.20 55.96 50.09 44.58 38.72 42.93 48.63 49.61 47.62 42.70 45.37 41.46 43.90 43.76 40.42 41.09 43.69 44.20 44.72 43.16 41.50 37.62 43.01 45.62 47.93 47.36 46.39 49.26 44.31 41.70 37.08 35.75
56.29 55.88 55.62 55.22 53.97 53.96 53.96 54.17 54.85 54.05 53.70 53.24 49.92 49.24 54.24 55.84 52.69 47.57 38.87 40.38 46.71 50.56 50.19 46.64 45.21 44.24 44.15 43.89 43.58 40.26 40.99 44.61 46.25 44.42 43.82 40.57 38.69 40.72 43.55 42.72 43.19 43.75 44.07 43.57 43.65 41.61 38.97
55.66 55.90 55.51 55.15 54.07 54.06 53.94 54.07 54.42 53.22 53.26 51.35 47.48 47.04 53.79 55.13 47.11 43.02 42.33 45.30 48.39 48.91 50.49 49.95 47.84 47.15 45.08 46.20 42.84 42.50 43.34 45.41 51.62 45.34 42.59 41.93 38.03 36.82 41.25 44.28 46.24 44.19 44.49 45.62 41.59 39.83 39.55
55.14 55.83 55.80 55.41 55.27 54.01 54.14 53.78 53.89 52.70 53.85 52.52 48.05 46.95 55.90 53.68 43.31 43.06 45.81 48.90 50.78 49.92 49.56 48.70 48.15 49.46 48.24 43.84 41.88 44.43 48.50 53.14 57.04 45.62 43.80 43.69 37.92 35.23 38.54 41.01 45.55 44.78 46.13 44.70 43.57 43.20 41.25
54.77 54.88 55.62 55.65 55.75 54.64 53.90 53.66 53.58 52.86 53.75 52.54 49.01 46.64 50.09 50.35 47.47 46.23 45.54 47.84 47.96 53.54 51.55 51.62 50.29 49.37 45.73 43.59 43.37 44.62 51.37 55.68 56.86 55.39 58.81 50.25 36.63 38.98 38.92 39.62 45.05 44.77 47.68 46.46 44.19 40.36 41.29
54.49 54.51 54.71 55.33 56.01 55.64 54.40 53.91 53.72 52.89 53.22 51.73 48.70 46.30 49.04 45.28 46.72 47.69 47.87 48.55 49.64 49.48 51.71 52.88 50.19 52.16 48.13 40.48 44.25 47.27 51.28 51.53 53.65 56.71 51.78 45.28 37.32 36.13 39.26 42.44 47.59 49.07 47.79 48.51 45.62 45.42 44.07
54.50 54.28 54.45 54.84 55.39 56.20 54.78 54.00 54.21 53.30 52.94 52.04 46.23 47.95 50.10 47.17 47.98 46.88 46.45 46.87 49.49 52.36 51.06 51.35 50.80 54.04 51.19 42.21 43.96 44.09 49.85 48.16 47.68 52.19 49.17 48.08 42.54 38.77 38.25 46.36 48.03 47.62 49.04 49.27 49.39 49.17 47.70
54.13 53.96 54.11 54.49 55.25 56.40 55.75 54.26 54.24 53.77 53.37 52.90 54.19 50.95 49.47 46.31 46.98 44.83 45.72 49.02 51.68 52.95 53.74 55.34 54.53 51.94 50.98 51.87 53.93 51.88 50.95 50.13 50.18 49.26 48.43 47.26 45.73 43.23 41.05 42.63 42.82 39.58 44.30 46.48 49.54 49.42 49.64
54.07 53.84 53.78 54.24 55.22 56.16 56.47 55.46 54.61 54.06 54.59 54.39 52.87 52.33 46.92 44.77 47.16 48.17 50.26 51.33 51.53 52.37 51.12 54.89 55.28 51.81 54.85 56.85 54.63 52.82 52.27 51.74 52.45 49.73 49.14 46.37 44.77 40.95 41.83 41.21 36.05 44.53 47.24 51.80 50.81 52.65 53.96
53.84 53.57 53.47 54.24 55.14 55.69 56.24 55.93 55.25 54.33 54.44 53.10 51.12 52.19 51.32 45.96 47.69 48.44 49.45 49.80 51.13 51.34 51.72 54.19 56.02 55.94 56.04 53.75 48.89 46.42 47.30 47.98 49.92 50.97 49.45 48.08 43.47 40.17 40.91 37.71 43.35 47.76 50.98 50.54 49.49 49.86 58.11
53.55 53.41 53.40 54.04 55.02 55.39 55.81 56.29 55.53 54.49 54.09 53.21 52.73 53.18 49.79 46.65 43.29 50.50 48.20 49.18 46.84 47.29 48.91 52.65 57.17 56.03 56.14 49.13 48.72 43.38 41.92 45.28 46.11 48.33 49.09 49.14 46.24 44.54 39.62 38.43 37.53 44.90 54.48 57.00 54.66 46.20 59.24
53.28 53.07 53.32 53.95 54.93 55.16 55.63 56.01 55.59 54.97 54.30 53.74 52.52 54.89 53.48 49.57 47.04 47.49 46.46 46.83 48.93 47.91 46.49 49.30 52.50 53.62 54.81 48.27 46.88 45.38 44.41 48.04 43.17 43.19 43.93 44.45 44.49 43.04 41.30 40.59 43.19 52.42 55.60 56.68 44.85 47.20 60.36
53.17 52.96 53.27 53.75 54.64 54.93 55.35 55.71 55.46 55.20 55.77 55.76 50.70 54.86 54.18 51.33 48.32 51.02 51.10 47.17 47.89 47.87 45.86 49.06 49.82 51.61 52.21 47.42 46.47 45.48 44.76 46.72 44.80 46.42 45.14 43.81 44.25 44.86 44.69 39.87 39.59 54.96 55.38 50.69 52.37 58.48 61.07
53.05 53.11 53.07 53.48 54.64 54.58 55.28 55.66 55.41 55.14 56.31 57.06 51.67 54.29 56.05 52.00 48.91 52.08 53.60 54.32 53.03 52.75 48.46 48.48 48.90 49.63 53.34 48.57 47.82 47.98 45.93 47.40 43.18 41.14 46.12 44.11 48.08 45.61 47.46 47.99 53.23 55.00 54.54 57.92 58.99 59.87 60.82

GFSGBSN_sfc_wetblb_285.txt.gz
Wetbulb
60.94 60.97 60.85 60.77 60.65 60.35 60.24 60.00 59.52 60.11 60.02 59.88 59.64 59.58 59.71 59.60 59.53 59.77 59.92 59.86 59.55 59.18 58.94 59.88 60.93 61.54 58.95 51.07 51.38 55.81 67.94 66.29 65.96 61.80 60.73 60.93 62.19 61.23 58.83 59.18 59.42 58.36 61.15 64.07 64.60 63.99 63.80
60.67 60.62 60.56 60.30 60.33 60.22 60.05 59.85 59.84 59.81 59.76 59.46 59.53 59.44 59.24 59.31 59.43 59.54 59.54 59.20 59.06 58.44 58.24 59.17 60.89 61.25 56.32 48.54 54.50 57.35 59.20 58.66 61.02 61.93 61.48 62.46 61.49 61.05 59.68 58.25 57.97 59.92 63.46 63.31 63.58 63.65 64.32
60.74 60.61 60.44 60.16 59.96 59.78 59.60 59.62 59.36 59.40 59.05 59.13 59.08 58.94 58.78 58.83 59.04 59.10 58.99 58.38 58.46 58.60 59.30 60.24 60.99 60.80 53.86 52.16 56.63 58.39 59.41 58.03 59.37 62.42 60.39 61.93 61.85 58.91 58.84 57.77 59.59 59.29 59.65 62.23 62.76 62.90 62.30
60.65 60.68 60.55 60.24 60.10 59.93 59.54 59.44 59.13 59.14 58.97 58.95 58.83 58.60 58.44 58.44 58.35 58.37 58.05 57.62 57.69 59.23 61.31 60.89 61.52 59.05 50.90 55.40 57.34 58.62 59.94 58.42 57.94 58.99 59.78 60.47 60.56 59.12 58.91 59.68 59.11 57.66 57.74 55.73 59.83 62.35 63.09
60.46 60.46 60.39 60.46 60.09 59.78 59.46 59.38 59.10 59.10 58.94 58.66 58.46 58.13 58.16 58.03 57.73 57.42 56.85 56.97 58.70 60.85 61.52 61.87 57.85 54.14 50.95 60.61 56.54 58.67 60.03 55.76 56.00 56.01 57.24 59.71 60.01 58.28 59.14 57.87 57.15 56.31 53.22 53.96 55.71 62.94 62.15
59.81 59.93 59.65 59.26 59.37 59.36 59.14 58.94 58.97 58.77 58.48 58.04 57.72 57.60 57.36 57.30 57.07 56.28 55.84 57.04 58.42 60.55 61.14 61.30 59.54 52.44 54.35 53.25 56.27 57.52 57.33 56.40 54.35 54.32 56.08 57.18 57.76 57.64 57.32 57.65 52.54 52.27 52.65 53.65 53.92 58.85 61.70
59.34 58.95 58.69 58.64 58.65 58.72 58.60 58.50 58.31 57.94 57.74 57.54 57.08 56.81 56.71 56.51 56.26 55.17 55.71 57.33 56.92 54.85 56.39 54.78 53.72 50.89 54.25 57.54 57.94 56.82 55.46 54.08 53.90 53.54 52.36 52.60 54.27 53.80 56.71 57.23 56.37 55.01 53.64 52.56 55.51 58.01 58.51
58.46 58.18 57.87 57.90 57.68 58.12 57.94 57.84 57.53 57.00 56.86 56.90 56.49 56.27 56.22 55.96 55.23 55.01 55.45 56.29 54.98 55.88 52.46 56.35 55.79 55.65 57.36 57.59 54.82 55.90 54.89 52.61 51.55 49.17 49.72 51.13 51.34 55.18 56.64 56.28 55.68 54.59 53.28 53.36 55.52 58.31 58.49
57.55 57.20 57.41 56.93 56.46 56.53 56.56 56.73 56.51 56.45 56.25 56.25 56.14 55.86 55.74 54.74 54.67 55.55 54.60 56.11 57.76 57.32 52.78 53.74 55.15 54.84 55.84 57.44 54.20 54.23 53.97 50.78 49.26 47.86 48.08 48.69 51.37 52.58 53.86 53.88 53.75 53.97 54.01 53.08 52.36 55.59 58.15
56.90 56.54 55.88 55.76 55.69 55.88 55.99 55.95 55.90 55.98 55.82 55.64 55.64 55.67 55.01 53.71 53.94 54.04 55.47 57.16 57.55 57.02 49.33 49.69 51.43 53.88 55.51 55.63 52.40 56.75 52.84 51.59 48.03 47.37 47.86 48.24 50.16 50.26 51.28 52.02 54.29 52.96 54.04 53.35 52.58 52.06 49.64
56.30 55.80 55.65 55.18 55.43 55.54 55.45 55.41 55.38 55.23 55.19 55.17 55.41 55.37 54.03 53.61 53.05 53.11 55.45 56.82 57.67 54.12 41.84 51.42 51.17 57.19 55.56 52.50 51.22 52.07 52.20 51.49 48.02 46.80 47.88 47.24 48.18 48.70 49.31 50.70 53.70 52.99 53.85 52.37 53.04 53.20 52.96
55.85 55.40 54.74 54.35 54.34 53.99 54.08 54.11 53.95 54.57 54.79 54.93 54.95 54.68 53.98 53.52 53.14 55.11 56.38 56.76 55.21 46.80 41.09 49.29 51.49 50.80 51.73 51.86 51.72 50.37 51.10 52.30 51.06 48.18 47.90 48.64 49.71 51.07 52.22 52.82 54.07 53.73 52.70 53.89 53.76 53.52 49.90
55.67 55.77 56.04 55.89 55.15 53.77 53.56 53.62 53.54 54.38 54.56 54.40 53.57 53.13 52.82 53.87 53.58 55.89 56.96 55.08 46.78 41.82 49.47 48.80 48.82 51.29 49.34 48.88 49.75 49.90 49.40 48.25 47.12 44.47 45.03 46.34 47.57 49.54 51.31 49.12 50.93 51.62 50.17 47.30 47.39 47.72 48.04
55.76 55.75 56.10 55.98 55.69 54.30 53.69 53.63 53.41 54.07 54.21 53.52 52.26 51.83 53.45 53.60 55.18 56.14 55.66 52.05 40.49 44.90 48.53 51.90 49.96 49.54 47.77 49.04 48.80 48.61 48.18 47.05 47.05 46.48 44.73 44.22 42.94 47.04 49.92 49.31 49.53 49.85 50.36 47.99 43.62 45.36 48.57
55.63 55.74 56.18 55.91 55.55 55.33 54.56 53.82 53.41 53.93 53.85 53.14 51.93 54.50 53.93 56.01 55.25 55.15 54.01 44.19 43.10 45.90 50.29 48.34 50.22 46.82 47.34 48.10 48.54 48.00 49.05 48.13 49.34 48.30 45.51 44.27 44.15 48.41 49.24 50.86 51.41 50.87 49.14 52.72 48.28 48.31 48.57
55.53 55.86 55.44 55.79 55.53 55.37 54.54 53.67 53.75 54.01 53.58 53.02 52.27 53.91 55.65 56.57 56.77 54.65 51.65 42.49 46.94 50.28 51.49 49.82 46.81 48.89 47.33 48.47 47.06 46.60 46.84 48.60 48.13 48.66 51.10 48.17 44.34 47.47 48.95 52.12 51.94 52.95 54.69 49.48 51.21 44.87 43.43
55.47 55.74 55.15 55.47 55.72 55.26 55.21 53.86 53.88 53.62 52.87 52.61 53.60 54.63 56.51 57.28 55.60 53.07 47.65 46.29 48.04 51.98 52.23 50.07 48.17 48.36 48.90 48.86 48.94 47.93 47.58 48.95 48.83 47.61 48.75 47.86 47.05 47.20 48.53 48.96 49.27 50.96 50.79 51.15 52.07 51.34 46.36
55.40 55.53 54.94 55.38 55.66 55.58 55.86 54.44 53.61 52.82 52.03 52.73 52.00 51.90 57.55 57.55 52.07 48.96 48.71 48.73 47.77 52.80 53.70 52.16 52.01 50.94 49.52 49.82 48.94 48.49 49.02 49.96 55.50 49.31 46.89 48.92 47.57 45.53 46.99 49.05 49.21 50.25 51.46 53.16 47.44 47.97 49.99
55.39 55.43 54.84 55.06 55.42 55.72 55.83 54.38 53.21 52.48 52.42 52.85 51.18 52.15 58.45 57.24 49.97 50.45 52.01 52.12 52.65 53.41 53.54 52.33 51.04 51.13 51.38 50.96 49.06 49.18 50.59 55.91 56.04 49.15 48.75 48.23 46.77 44.22 45.73 47.20 48.75 48.26 49.96 51.46 50.81 51.66 50.04
55.51 55.53 54.79 54.68 54.69 55.12 55.80 54.73 52.94 52.42 52.49 53.82 52.06 51.68 55.06 55.19 52.54 51.65 51.01 51.45 51.81 55.12 53.70 54.30 53.07 53.74 53.86 49.74 50.75 49.65 52.14 56.32 57.06 56.08 57.54 54.24 46.03 46.80 44.45 47.05 50.17 50.28 51.03 51.32 52.17 50.21 49.91
55.69 55.59 54.65 54.49 54.34 54.87 55.78 55.40 53.34 52.66 52.08 53.50 52.30 51.19 52.19 50.65 51.77 52.54 52.42 51.88 51.30 51.55 55.20 56.16 54.34 55.26 53.77 52.01 49.05 49.68 53.42 55.51 56.60 58.02 54.09 50.52 49.36 46.55 47.50 46.78 47.15 48.65 49.75 51.19 51.35 52.88 50.80
55.97 55.43 54.37 54.25 54.10 54.53 55.64 55.94 53.82 52.92 52.39 54.63 52.22 51.77 53.62 52.05 51.08 51.33 48.62 51.20 51.33 52.74 53.89 53.49 54.21 55.42 53.90 52.21 53.48 51.31 52.58 54.39 54.41 57.25 56.08 53.65 52.10 50.95 50.87 49.96 47.15 47.72 51.06 52.39 52.49 52.76 52.68
56.07 55.53 54.41 54.17 53.92 54.43 55.58 56.10 54.33 53.06 52.90 53.32 53.85 54.10 52.71 48.11 50.79 50.71 51.55 51.74 52.40 53.73 55.10 56.35 55.60 55.08 54.31 55.68 57.32 58.17 58.32 56.88 56.37 56.14 55.10 54.24 54.04 52.49 48.94 50.67 48.79 46.82 50.17 52.17 52.33 54.10 53.03
56.06 55.46 54.29 54.15 53.72 54.37 55.34 55.84 55.30 53.47 53.50 53.87 52.75 52.98 50.84 49.46 50.90 51.43 51.53 51.69 51.82 52.83 52.44 55.36 56.82 55.28 57.72 59.57 58.02 57.61 57.37 57.17 57.11 56.12 56.43 54.33 53.31 53.06 49.53 50.72 44.39 51.23 54.09 52.36 50.71 52.21 54.85
56.26 55.46 54.39 53.94 53.63 54.35 55.00 55.43 56.24 54.20 53.76 52.86 53.72 51.75 51.05 48.32 50.03 50.53 51.02 51.29 52.41 53.54 53.18 54.41 56.73 58.47 59.37 57.94 54.80 52.42 52.99 53.57 54.94 55.35 55.43 55.04 53.20 51.33 48.68 48.61 50.55 53.16 55.10 54.17 53.91 53.46 58.26
56.48 55.40 54.49 54.02 53.40 54.16 54.93 55.35 56.12 54.40 53.73 53.38 52.56 54.95 52.10 47.40 47.20 50.40 50.03 50.73 50.34 51.52 52.67 54.13 58.08 58.83 59.69 56.97 54.58 49.55 48.01 50.54 50.28 52.14 54.86 53.89 53.46 52.00 48.67 46.15 43.89 52.37 57.43 59.75 59.31 51.75 59.51
56.46 55.33 54.36 54.08 53.41 54.08 54.96 55.09 55.75 55.17 53.69 53.19 52.84 55.01 52.51 48.07 51.02 51.11 49.62 50.25 52.45 51.69 51.23 52.60 54.24 55.34 58.35 55.78 51.82 50.87 50.30 52.17 49.64 49.45 50.09 51.79 52.12 50.26 50.34 48.34 51.52 54.47 58.16 59.74 50.89 53.65 61.40
56.32 55.25 54.44 53.91 53.61 54.05 54.73 54.94 55.27 55.74 54.67 54.48 53.39 56.11 54.01 50.93 51.08 52.50 52.82 51.06 51.66 51.68 50.77 52.88 53.04 54.60 55.63 53.59 52.43 52.63 51.84 52.72 51.41 52.31 51.88 51.49 50.34 50.53 49.66 47.88 46.39 58.37 59.25 55.18 58.21 61.76 63.06
55.90 54.93 54.09 53.68 53.48 53.87 54.63 54.73 55.47 55.41 54.93 55.98 52.66 55.63 56.71 51.36 50.72 54.17 54.60 55.27 54.61 54.30 52.26 52.42 52.21 52.06 55.50 55.01 54.34 53.70 52.26 52.15 52.02 49.61 52.96 49.46 54.12 53.46 53.58 53.59 58.23 59.50 59.31 61.58 61.98 61.91 63.32

GFSGBSN_sfc_wetblb_291.txt.gz
Wetbulb
60.78 60.83 60.96 60.89 60.53 60.41 60.15 60.18 60.08 60.01 59.87 59.98 59.79 59.59 59.63 59.51 59.28 59.56 59.96 59.95 59.87 59.72 59.87 60.23 60.98 61.56 64.18 59.76 57.32 61.65 70.32 69.62 69.56 66.15 64.61 65.27 65.10 64.95 62.37 62.73 62.92 61.14 62.72 64.73 66.80 66.72 65.95
60.74 60.70 60.78 60.77 60.60 60.35 60.15 59.91 60.01 59.89 59.82 59.64 59.45 59.38 59.22 59.01 59.14 59.22 59.14 59.12 59.13 58.97 59.54 60.32 61.38 61.19 63.60 54.70 60.16 61.51 61.31 62.12 65.87 65.27 65.83 67.01 65.85 66.51 64.44 62.96 62.18 63.17 62.85 63.88 65.52 65.98 65.84
60.46 60.15 60.08 60.30 60.39 59.87 59.46 59.39 59.37 59.32 59.25 58.85 58.86 58.83 58.69 58.32 58.49 58.56 58.60 58.37 58.33 58.53 59.78 60.94 61.98 64.14 60.07 57.29 60.68 61.02 61.63 62.11 65.09 66.02 66.19 68.18 68.28 65.22 65.53 62.91 64.58 63.46 61.08 63.52 63.92 64.57 64.97
60.15 59.77 59.64 59.53 59.29 59.24 59.02 58.84 58.86 58.85 58.58 58.33 58.21 58.15 58.17 57.90 57.83 57.82 57.72 56.73 57.60 59.49 61.59 62.83 63.03 64.41 58.18 60.94 61.73 59.80 61.47 61.66 63.39 65.48 67.16 68.77 68.08 65.81 64.93 65.81 63.33 61.34 61.21 57.65 62.91 63.01 65.18
59.44 59.77 59.23 58.84 58.67 58.54 58.72 58.50 58.14 57.90 57.77 57.88 57.78 57.62 57.56 57.34 57.15 56.95 55.98 56.54 58.53 62.11 62.24 61.94 64.16 62.98 57.19 61.25 57.52 60.53 61.46 60.32 62.53 64.07 66.36 64.35 65.27 64.32 63.88 61.05 59.59 60.76 55.49 57.88 59.50 62.21 63.16
58.78 58.71 58.34 58.03 57.60 57.42 56.98 57.00 56.93 56.81 56.90 57.05 57.13 56.82 56.88 56.72 56.65 55.51 55.51 56.56 61.93 61.74 63.53 64.67 63.50 59.13 59.81 55.98 59.53 60.32 61.52 61.88 61.11 62.33 62.00 61.94 63.76 61.19 60.91 59.62 54.71 56.28 56.90 57.47 57.25 61.07 61.72
58.52 57.93 57.42 57.27 56.38 56.25 56.14 56.07 56.04 56.16 56.00 56.47 56.54 56.41 56.29 56.18 55.25 54.99 57.60 64.18 62.28 61.21 63.20 59.96 59.69 57.44 57.10 60.32 61.64 59.08 60.51 60.46 60.99 60.22 57.32 60.63 58.59 56.45 58.34 60.32 60.35 59.59 59.02 57.29 59.26 60.73 59.76
57.75 57.29 56.80 56.03 55.73 55.89 55.74 55.69 55.64 55.48 55.59 55.78 56.19 56.03 55.90 55.33 55.01 54.78 58.09 62.42 61.01 61.55 57.38 61.02 59.82 59.67 60.85 61.22 56.76 57.51 60.76 56.86 56.56 54.37 57.67 57.74 55.20 58.98 60.19 60.44 59.49 58.89 57.96 57.60 59.44 61.16 60.14
57.20 56.70 55.99 55.34 55.41 55.59 55.42 54.57 55.19 54.65 55.41 55.71 55.77 55.62 55.45 54.72 54.50 58.69 63.47 62.40 64.38 64.22 58.57 58.76 59.64 58.76 58.58 59.66 56.67 56.34 57.96 57.52 55.55 54.17 55.08 54.39 57.02 58.22 57.92 58.33 57.68 58.40 57.32 57.63 57.48 59.96 60.34
57.13 56.53 55.89 56.16 56.19 55.94 55.79 55.30 54.30 54.29 54.99 55.30 55.44 55.52 54.73 54.01 56.38 62.49 62.30 64.82 64.78 64.74 56.29 54.96 56.01 58.23 59.02 58.41 55.35 59.11 58.88 57.17 54.99 53.28 54.83 54.56 56.61 55.85 56.13 56.05 57.94 55.23 58.78 58.00 57.98 57.13 53.75
57.02 56.77 56.47 56.71 56.65 56.52 56.15 55.37 55.02 54.45 54.81 55.08 55.24 55.28 54.23 53.49 58.50 61.13 63.43 64.55 64.89 63.59 47.94 54.95 55.38 61.33 59.08 56.46 56.94 56.27 59.46 56.63 53.07 52.50 53.51 52.36 53.09 53.72 53.53 54.78 56.90 55.35 58.60 58.15 58.49 56.89 56.30
57.23 56.74 56.61 56.64 56.24 56.39 55.96 55.81 55.32 54.87 54.74 54.79 54.79 54.56 54.01 59.70 61.24 62.43 63.83 64.06 63.31 52.59 47.20 52.53 55.10 54.45 54.37 56.29 55.40 56.50 55.20 57.35 56.86 52.92 53.21 52.94 55.53 54.33 54.06 55.70 56.40 57.67 56.92 57.74 57.92 55.87 51.11
57.35 56.83 56.58 56.49 56.46 56.40 56.01 55.55 55.63 54.75 54.47 54.18 53.70 52.89 53.64 60.22 61.10 63.80 63.50 61.84 53.44 49.48 55.96 51.97 52.46 54.10 53.39 52.66 52.80 53.96 52.60 51.95 50.85 48.71 49.53 51.45 52.02 54.28 54.98 53.25 56.38 55.89 54.21 50.23 49.29 49.81 48.91
57.53 56.84 56.43 56.57 56.48 56.09 55.91 55.69 55.56 54.61 54.20 53.54 52.00 51.47 57.97 60.91 63.76 62.94 62.32 57.45 49.63 51.73 53.33 55.57 54.49 53.70 51.78 53.46 53.21 53.11 52.45 50.81 53.16 52.75 51.36 49.21 47.50 51.96 54.47 53.04 52.81 54.20 53.07 49.89 46.06 47.04 49.08
57.86 57.07 56.43 56.67 56.25 56.07 56.07 55.78 55.41 54.55 53.97 52.90 51.38 62.99 64.53 65.75 64.30 63.61 59.31 52.44 52.04 53.44 55.08 53.62 54.87 52.86 52.51 53.05 52.88 52.77 53.05 52.13 53.49 53.56 50.02 50.09 49.60 53.96 53.92 54.72 53.98 52.97 51.42 54.37 50.21 51.39 49.19
58.21 57.23 56.37 56.27 56.09 56.01 55.88 55.70 55.64 54.73 53.64 52.57 59.42 63.94 63.25 64.93 64.69 61.47 56.75 51.27 53.20 56.70 55.21 55.52 52.58 54.74 51.49 52.40 51.62 52.09 52.47 54.30 52.85 54.44 55.15 53.05 49.49 53.57 53.84 54.28 54.55 53.22 55.72 50.20 50.86 46.47 46.13
58.64 57.46 56.49 56.06 55.71 55.95 55.84 55.92 55.64 54.48 52.84 52.41 60.69 61.54 62.23 63.92 63.20 58.98 53.51 54.17 53.07 57.23 55.73 55.27 54.79 53.89 54.64 52.57 52.85 51.73 52.74 54.09 54.52 54.44 55.30 53.77 52.11 52.03 53.23 51.87 50.99 51.75 50.95 52.74 53.50 51.47 47.70
58.90 57.72 56.41 56.12 55.79 55.77 55.87 55.94 55.29 53.74 51.87 53.10 62.44 59.53 63.08 64.79 56.99 57.40 54.63 54.61 49.65 55.32 56.63 56.61 57.65 57.48 54.90 53.88 53.31 53.41 52.85 56.46 58.48 57.85 52.61 54.94 52.92 50.25 51.68 54.82 55.03 54.29 53.03 52.82 50.52 50.60 53.13
59.15 58.05 56.83 56.19 55.74 55.37 55.75 55.62 55.11 53.40 52.34 58.15 61.08 61.01 64.04 63.61 55.30 54.85 56.23 55.67 56.22 54.72 56.47 56.15 56.00 57.35 57.84 55.55 53.13 54.29 55.63 59.14 58.43 57.13 55.45 55.93 51.68 48.65 50.13 52.47 54.14 51.96 53.74 54.50 53.74 53.66 52.15
59.05 58.16 57.18 56.39 55.66 55.21 55.55 55.47 54.91 53.93 52.64 56.84 60.97 56.71 59.70 60.22 60.60 58.26 55.64 55.23 54.91 57.01 57.37 57.65 57.88 58.26 57.66 56.41 57.05 54.90 54.70 58.20 59.48 59.65 59.87 60.61 53.03 51.51 48.69 51.52 53.97 51.65 52.16 53.08 52.86 50.54 51.25
59.51 58.55 57.65 56.76 55.55 55.10 55.13 55.68 55.17 54.22 52.59 57.26 61.31 59.87 60.88 55.38 56.76 57.21 57.91 57.41 55.07 55.15 57.20 58.33 57.41 57.90 57.02 55.31 55.59 55.00 56.03 57.61 58.13 57.73 57.91 57.04 52.43 54.99 53.75 54.34 53.20 51.97 51.67 52.69 51.89 53.00 51.09
59.29 58.69 57.72 56.74 55.43 54.86 54.87 55.92 55.61 54.56 52.30 59.44 58.21 58.73 62.13 58.77 58.82 57.82 53.05 56.37 55.55 56.46 57.50 55.92 56.35 57.05 58.65 57.02 57.64 55.79 56.28 56.80 56.79 59.61 57.62 58.64 53.73 55.50 54.10 55.21 55.25 52.30 52.49 52.11 52.63 53.81 53.82
59.14 58.84 57.89 56.99 55.74 55.03 54.64 55.61 56.08 54.44 52.61 59.26 61.91 61.46 60.42 54.80 57.19 56.10 56.57 56.16 56.19 58.26 58.95 61.32 58.80 59.03 57.98 60.20 62.07 62.49 62.97 61.93 60.48 58.91 57.92 57.57 55.77 54.53 51.47 54.92 54.31 52.28 54.00 52.98 53.13 54.51 54.69
58.98 58.80 57.95 57.27 55.86 54.93 54.53 55.48 56.12 55.48 53.14 58.89 60.17 59.40 56.82 53.89 56.50 56.31 56.46 57.16 56.75 58.18 58.68 59.41 60.29 59.65 62.75 64.65 63.68 63.13 61.51 60.32 60.10 59.74 60.04 56.98 56.73 55.76 52.21 53.85 47.17 54.09 57.86 57.82 54.54 54.68 55.76
58.82 58.77 58.10 57.40 56.02 55.01 54.65 55.33 55.78 55.98 54.74 57.60 60.46 58.71 57.20 53.74 56.64 56.41 57.10 57.40 58.35 59.18 58.59 59.62 60.68 62.81 64.45 62.04 58.00 55.70 55.75 56.49 57.34 58.80 58.65 59.16 56.84 53.40 51.08 50.88 53.31 54.36 56.85 56.33 57.49 53.52 62.38
58.64 58.51 57.78 57.33 56.00 55.19 54.73 55.37 55.67 56.04 54.46 56.09 61.26 61.49 58.11 54.31 55.31 57.06 55.94 57.33 56.17 56.79 57.54 59.18 62.80 64.18 62.68 59.39 56.96 52.64 51.36 53.91 53.75 55.64 59.56 59.21 59.12 54.70 52.88 49.22 47.09 55.21 58.67 61.38 60.75 53.99 64.02
58.36 58.37 57.76 57.11 56.00 55.33 54.73 55.42 55.82 55.99 54.44 55.47 60.45 60.35 57.85 53.63 55.78 56.92 54.71 55.30 58.64 58.46 57.65 59.53 59.71 60.08 62.18 56.92 54.33 53.20 52.65 56.52 52.60 53.13 53.47 55.87 55.44 52.41 52.62 51.02 53.25 59.87 61.53 62.03 52.47 56.49 64.58
57.93 58.23 57.42 56.86 56.07 55.20 54.91 55.46 55.75 55.75 55.04 55.22 59.46 62.17 57.41 54.97 56.34 57.32 57.37 56.90 58.02 57.83 55.30 58.22 57.32 57.78 57.63 55.06 54.15 54.59 54.14 55.59 56.13 56.67 55.16 54.56 53.01 53.57 53.85 51.69 49.08 62.75 61.44 57.69 62.43 64.75 65.16
57.38 57.55 57.10 56.28 55.68 55.05 55.01 55.39 55.68 55.71 56.06 54.41 58.30 61.03 60.63 55.86 56.53 59.22 59.21 60.07 59.72 60.08 59.00 59.34 58.53 60.08 60.21 55.94 56.00 56.66 55.02 56.80 56.71 52.52 58.71 53.07 56.06 53.68 55.52 56.36 57.32 62.77 62.58 65.03 65.25 64.98 65.84